STARLINK-34365

Last updated on Sat Jul 19 2025 00:02:07 GMT+0000 (Coordinated Universal Time)

1 64671U 25139H 25199.58335648 .00035763 00000+0 64893-3 0 9998 2 64671 53.1593 138.1661 0000791 91.9601 97.8050 15.49273685 4442
UTC large
Height (km)
Speed (km/s)
/
Latitude / Longitude
Inclination (degrees)
Orbital Period (minutes)
Azimuth
Elevation
Range (km)
Doppler Factor

Next 0 passes for location: London (51.5072 / 0.1276)

Sorry there are no passes over London.